Melfa, VA

4:07 PM EST on February 24, 2017 (GMT -0500)
Accomack County

Weather History for KMFV - October, 2013

Change the Weather History Date:

Wednesday, October 9, 2013

  Actual Average (KWAL) Record (KWAL)
Temperature  
Mean Temperature 65 °F -  
Max Temperature 68 °F 68 °F 91 °F (2007)
Min Temperature 62 °F 51 °F 33 °F (2001)
Growing Degree Days 15 (Base 50)    
Moisture  
Dew Point 56 °F    
Average Humidity 73    
Maximum Humidity 83    
Minimum Humidity 56    
Precipitation  
Precipitation 0.84 in - - ()
Sea Level Pressure  
Sea Level Pressure 30.14 in    
Wind  
Wind Speed 12 mph (NE)    
Max Wind Speed 23 mph    
Max Gust Speed 38 mph    
Visibility 9 miles    
Events Rain    
Averages and records for this station are not official NWS values.
T = Trace of Precipitation, MM = Missing Value Source: NWS Daily Summary

Daily Weather History Graph

Daily Weather History Graph

Search for Another Location

Airport or City:

Trip Planner

Search our weather history database for the weather conditions in past years. The results will help you decide how hot, cold, wet, or windy it might be!

Date:

Astronomy

Oct. 09, 2013 Rise Set
Actual Time 7:05 AM EDT 6:33 PM EDT
Civil Twilight 6:39 AM EDT 7:00 PM EDT
Nautical Twilight 6:09 AM EDT 7:30 PM EDT
Astronomical Twilight 5:38 AM EDT 8:00 PM EDT
Moon 11:54 AM EDT (10/9) 10:10 PM EDT (10/9)
Length of Visible Light 12h 20m
Length of Day
11h 27m
Waxing Crescent, 25% of the Moon is Illuminated
Oct 9
Waxing Crescent
Oct 11
First Quarter
Oct 18
Full
Oct 26
Last Quarter
Nov 3
New

Hourly Weather History & Observations

Time (EDT) Temp. Dew Point Humidity Pressure Visibility Wind Dir Wind Speed Gust Speed Precip Events Conditions
12:15 AM 62.6 °F 50.0 °F 63% 30.21 in 10.0 mi NNE 9.2 mph - N/A Rain Rain
12:36 AM 62.6 °F 51.8 °F 68% 30.21 in 10.0 mi NNE 8.1 mph - N/A   Mostly Cloudy
12:55 AM 62.6 °F 50.0 °F 63% 30.20 in 10.0 mi NNE 8.1 mph - N/A   Scattered Clouds
1:15 AM 62.6 °F 50.0 °F 63% 30.19 in 10.0 mi NNE 5.8 mph - N/A   Scattered Clouds
1:35 AM 62.6 °F 50.0 °F 63% 30.19 in 10.0 mi NNE 6.9 mph - N/A   Scattered Clouds
1:55 AM 62.6 °F 51.8 °F 68% 30.20 in 10.0 mi North 6.9 mph - N/A   Clear
2:16 AM 62.6 °F 51.8 °F 68% 30.20 in 10.0 mi NNE 5.8 mph - N/A   Clear
2:36 AM 62.6 °F 51.8 °F 68% 30.18 in 10.0 mi North 6.9 mph - N/A   Clear
2:55 AM 62.6 °F 51.8 °F 68% 30.17 in 10.0 mi NNE 6.9 mph - N/A   Clear
3:15 AM 62.6 °F 51.8 °F 68% 30.16 in 10.0 mi NNE 6.9 mph - N/A   Clear
3:36 AM 66.2 °F 51.8 °F 60% 30.17 in 10.0 mi ENE 11.5 mph 17.3 mph N/A   Scattered Clouds
3:55 AM 66.2 °F 51.8 °F 60% 30.17 in 10.0 mi NE 12.7 mph 17.3 mph N/A   Mostly Cloudy
4:15 AM 66.2 °F 53.6 °F 64% 30.17 in 10.0 mi NE 11.5 mph 18.4 mph N/A   Mostly Cloudy
4:36 AM 66.2 °F 53.6 °F 64% 30.16 in 10.0 mi NE 9.2 mph - N/A   Scattered Clouds
4:55 AM 68.0 °F 51.8 °F 56% 30.16 in 10.0 mi NE 12.7 mph 19.6 mph N/A   Scattered Clouds
5:16 AM 68.0 °F 53.6 °F 60% 30.17 in 10.0 mi NE 9.2 mph - N/A   Mostly Cloudy
5:35 AM 68.0 °F 53.6 °F 60% 30.17 in 10.0 mi NE 12.7 mph 18.4 mph N/A   Overcast
5:55 AM 68.0 °F 53.6 °F 60% 30.18 in 10.0 mi NE 15.0 mph 23.0 mph N/A   Mostly Cloudy
6:15 AM 68.0 °F 53.6 °F 60% 30.18 in 10.0 mi ENE 17.3 mph 21.9 mph N/A Rain Light Rain
6:37 AM 68.0 °F 53.6 °F 60% 30.18 in 10.0 mi NE 15.0 mph 25.3 mph N/A   Scattered Clouds
6:55 AM 68.0 °F 53.6 °F 60% 30.17 in 10.0 mi ENE 16.1 mph 23.0 mph N/A Rain Light Rain
7:16 AM 66.2 °F 55.4 °F 68% 30.18 in 10.0 mi NE 15.0 mph - N/A Rain Light Rain
7:38 AM 66.2 °F 55.4 °F 68% 30.19 in 10.0 mi ENE 13.8 mph 19.6 mph N/A Rain Light Rain
7:55 AM 66.2 °F 55.4 °F 68% 30.19 in 10.0 mi NE 12.7 mph 18.4 mph N/A Rain Light Rain
8:15 AM 66.2 °F 55.4 °F 68% 30.19 in 10.0 mi ENE 13.8 mph 18.4 mph N/A Rain Rain
8:35 AM 66.2 °F 55.4 °F 68% 30.19 in 10.0 mi NE 12.7 mph - N/A Rain Light Rain
8:55 AM 66.2 °F 55.4 °F 68% 30.19 in 10.0 mi NE 12.7 mph 18.4 mph 0.01 in Rain Light Rain
9:15 AM 66.2 °F 55.4 °F 68% 30.19 in 7.0 mi NE 11.5 mph 19.6 mph N/A Rain Light Rain
9:35 AM 66.2 °F 55.4 °F 68% 30.20 in 10.0 mi NE 11.5 mph - 0.01 in Rain Light Rain
9:57 AM - - N/A% - 7.0 mi NE 13.8 mph 25.3 mph N/A Rain Light Rain
10:15 AM 66.2 °F 55.4 °F 68% 30.20 in 10.0 mi NE 11.5 mph 20.7 mph 0.01 in Rain Rain
10:37 AM 64.4 °F 57.2 °F 77% 30.19 in 7.0 mi NE 13.8 mph 18.4 mph 0.04 in Rain Rain
10:55 AM 64.4 °F 57.2 °F 77% 30.19 in 10.0 mi NNE 10.4 mph 26.5 mph 0.06 in Rain Rain
11:15 AM 64.4 °F 57.2 °F 77% 30.18 in 10.0 mi NE 10.4 mph 18.4 mph 0.02 in Rain Rain
11:35 AM 64.4 °F 57.2 °F 77% 30.18 in 10.0 mi NE 15.0 mph 21.9 mph 0.03 in Rain Light Rain
11:56 AM 64.4 °F 57.2 °F 77% 30.18 in 7.0 mi NE 11.5 mph 20.7 mph N/A Rain Rain
12:15 PM 64.4 °F 57.2 °F 77% 30.17 in 10.0 mi NE 12.7 mph 23.0 mph 0.03 in Rain Rain
12:35 PM 64.4 °F 59.0 °F 83% 30.17 in 7.0 mi NE 11.5 mph 19.6 mph 0.08 in Rain Heavy Rain
12:58 PM 64.4 °F 59.0 °F 83% 30.17 in 10.0 mi NE 12.7 mph 21.9 mph N/A Rain Rain
1:15 PM 64.4 °F 59.0 °F 83% 30.16 in 10.0 mi NE 12.7 mph 21.9 mph 0.04 in Rain Rain
1:35 PM 64.4 °F 59.0 °F 83% 30.14 in 7.0 mi NNE 13.8 mph 27.6 mph 0.08 in Rain Rain
1:55 PM 64.4 °F 59.0 °F 83% 30.14 in 10.0 mi NNE 13.8 mph 21.9 mph 0.13 in Rain Light Rain
2:15 PM 64.4 °F 59.0 °F 83% 30.13 in 10.0 mi NNE 16.1 mph 25.3 mph 0.02 in Rain Rain
2:35 PM 64.4 °F 59.0 °F 83% 30.12 in 10.0 mi NE 11.5 mph 20.7 mph 0.04 in Rain Rain
2:55 PM 64.4 °F 59.0 °F 83% 30.12 in 10.0 mi NNE 12.7 mph 24.2 mph 0.06 in Rain Light Rain
3:16 PM 64.4 °F 57.2 °F 77% - 10.0 mi NNE 17.3 mph 28.8 mph 0.01 in Rain Rain
3:35 PM 64.4 °F 57.2 °F 77% 30.12 in 10.0 mi NE 15.0 mph 26.5 mph 0.02 in Rain Light Rain
3:56 PM 64.4 °F 57.2 °F 77% 30.12 in 10.0 mi NE 19.6 mph 28.8 mph N/A Rain Light Rain
4:15 PM 64.4 °F 57.2 °F 77% 30.12 in 10.0 mi NE 19.6 mph 29.9 mph N/A   Overcast
4:35 PM 64.4 °F 57.2 °F 77% 30.12 in 7.0 mi NE 19.6 mph 29.9 mph N/A Rain Light Rain
4:55 PM 64.4 °F 57.2 °F 77% 30.11 in 5.0 mi NE 17.3 mph 26.5 mph N/A Rain Light Rain
5:15 PM 64.4 °F 57.2 °F 77% 30.11 in 7.0 mi NE 17.3 mph 33.4 mph 0.02 in Rain Rain
5:35 PM 64.4 °F 57.2 °F 77% 30.10 in 10.0 mi NNE 16.1 mph 35.7 mph 0.04 in Rain Light Rain
5:55 PM 64.4 °F 57.2 °F 77% 30.10 in 10.0 mi NE 19.6 mph 27.6 mph 0.05 in Rain Light Rain
6:15 PM 64.4 °F 57.2 °F 77% 30.10 in 10.0 mi NE 20.7 mph 29.9 mph N/A Rain Rain
6:39 PM 64.4 °F 57.2 °F 77% 30.09 in 10.0 mi NE 18.4 mph 26.5 mph 0.01 in Rain Light Rain
6:55 PM 64.4 °F 57.2 °F 77% 30.09 in 10.0 mi NE 17.3 mph 33.4 mph 0.04 in Rain Heavy Rain
7:15 PM 64.4 °F 57.2 °F 77% 30.08 in 10.0 mi NE 17.3 mph 29.9 mph 0.04 in Rain Rain
7:35 PM 64.4 °F 57.2 °F 77% 30.08 in 10.0 mi NE 17.3 mph 29.9 mph 0.07 in Rain Light Rain
7:55 PM 64.4 °F 57.2 °F 77% 30.08 in 10.0 mi NE 16.1 mph 38.0 mph 0.08 in Rain Light Rain
8:15 PM 64.4 °F 59.0 °F 83% 30.07 in 10.0 mi NE 19.6 mph 27.6 mph 0.02 in Rain Rain
8:35 PM 64.4 °F 59.0 °F 83% 30.07 in 10.0 mi NE 19.6 mph 27.6 mph 0.09 in Rain Heavy Rain
8:57 PM 64.4 °F 59.0 °F 83% 30.07 in 7.0 mi NE 20.7 mph 33.4 mph N/A Rain Rain
9:15 PM 64.4 °F 59.0 °F 83% 30.07 in 10.0 mi NE 20.7 mph 28.8 mph 0.02 in Rain Light Rain
9:35 PM 64.4 °F 59.0 °F 83% 30.08 in 10.0 mi NE 19.6 mph 33.4 mph 0.02 in Rain Light Rain
9:55 PM 64.4 °F 59.0 °F 83% 30.08 in 7.0 mi NE 16.1 mph 26.5 mph 0.06 in Rain Rain
10:15 PM 64.4 °F 59.0 °F 83% 30.08 in 7.0 mi NE 20.7 mph 28.8 mph 0.01 in Rain Rain
10:35 PM 64.4 °F 59.0 °F 83% 30.07 in 7.0 mi NNE 19.6 mph 29.9 mph 0.08 in Rain Heavy Rain
10:56 PM 64.4 °F 59.0 °F 83% 30.06 in 10.0 mi NE 18.4 mph 32.2 mph N/A Rain Rain
11:16 PM 66.2 °F 59.0 °F 78% 30.05 in 10.0 mi NE 21.9 mph 36.8 mph 0.03 in Rain Light Rain
11:36 PM 66.2 °F 60.8 °F 83% 30.05 in 7.0 mi NE 23.0 mph 36.8 mph 0.04 in Rain Rain
11:55 PM 66.2 °F 60.8 °F 83% 30.05 in 10.0 mi NE 16.1 mph 27.6 mph 0.04 in Rain Light Rain